Weather History for Newport, VT

Change the Weather History Date:

Sunday, December 29, 2013

  Actual Average Record
Temperature  
Mean Temperature 36 °F -  
Max Temperature 39 °F 28 °F 53 °F (1982)
Min Temperature 33 °F 9 °F -30 °F (1933)
Degree Days  
Heating Degree Days 29    
Moisture  
Dew Point 30 °F    
Average Humidity 76    
Maximum Humidity 87    
Minimum Humidity 64    
Precipitation  
Precipitation 0.00 in - - ()
Sea Level Pressure  
Sea Level Pressure 29.77 in    
Wind  
Wind Speed 5 mph (South)    
Max Wind Speed 14 mph    
Max Gust Speed 17 mph    
Visibility 9 miles    
Events Rain    
Averages and records for this station are not official NWS values.
T = Trace of Precipitation, MM = Missing Value Source: NWS Daily Summary

Daily Weather History Graph

Daily Weather History Graph

Search for Another Location

Airport:

Trip Planner

Search our weather history database for the weather conditions in past years. The results will help you decide how hot, cold, wet, or windy it might be!

Date:

Astronomy

Dec. 29, 2013 Rise Set
Actual Time 7:26 AM EST 4:15 PM EST
Civil Twilight 6:52 AM EST 4:49 PM EST
Nautical Twilight 6:15 AM EST 5:26 PM EST
Astronomical Twilight 5:40 AM EST 6:02 PM EST
Moon 4:03 AM EST (12/29) 1:54 PM EST (12/29)
Length of Visible Light 9h 56m
Length of Day
8h 49m
Waning Crescent, 11% of the Moon is Illuminated
Dec 29
Waning Crescent
Jan 1
New
Jan 7
First Quarter
Jan 15
Full
Jan 24
Last Quarter

Hourly Weather History & Observations

Time (EST) Temp. Windchill Dew Point Humidity Pressure Visibility Wind Dir Wind Speed Gust Speed Precip Events Conditions
12:15 AM 38.3 °F 34.8 °F 30.6 °F 74% 29.95 in 10.0 mi South 4.6 mph - N/A   Overcast
12:35 AM 39.0 °F 35.7 °F 30.2 °F 71% 29.94 in 10.0 mi WSW 4.6 mph - N/A   Overcast
12:55 AM 38.3 °F 33.2 °F 30.4 °F 73% 29.94 in 10.0 mi WSW 6.9 mph - N/A   Overcast
1:15 AM 37.9 °F 31.5 °F 30.7 °F 75% 29.93 in 10.0 mi West 9.2 mph - N/A   Overcast
1:35 AM 38.3 °F 30.1 °F 30.7 °F 74% 29.93 in 10.0 mi WSW 13.8 mph - N/A   Overcast
1:55 AM 38.7 °F 30.5 °F 30.9 °F 74% 29.93 in 10.0 mi WSW 13.8 mph 17.3 mph N/A   Overcast
2:15 AM 37.8 °F 35.3 °F 30.6 °F 75% 29.94 in 10.0 mi SSE 3.5 mph - N/A   Overcast
2:35 AM 37.4 °F 33.8 °F 30.9 °F 77% 29.94 in 7.0 mi SE 4.6 mph - N/A   Overcast
2:55 AM 36.9 °F 31.4 °F 31.1 °F 80% 29.93 in 7.0 mi SE 6.9 mph - N/A   Overcast
3:15 AM 36.5 °F 33.9 °F 31.1 °F 81% 29.93 in 7.0 mi South 3.5 mph - N/A   Overcast
3:35 AM 37.8 °F - 30.6 °F 75% 29.92 in 10.0 mi Calm Calm - N/A   Overcast
3:55 AM 36.9 °F - 30.7 °F 79% 29.92 in 10.0 mi Calm Calm - N/A   Overcast
4:15 AM 35.8 °F - 31.1 °F 83% 29.92 in 7.0 mi Calm Calm - N/A   Overcast
4:35 AM 36.7 °F - 30.6 °F 78% 29.92 in 10.0 mi Calm Calm - N/A   Overcast
4:55 AM 35.8 °F - 30.9 °F 82% 29.91 in 7.0 mi Calm Calm - N/A   Overcast
5:15 AM 35.8 °F - 30.6 °F 81% 29.91 in 7.0 mi Calm Calm - N/A   Overcast
5:35 AM 35.8 °F 33.0 °F 30.9 °F 82% 29.92 in 7.0 mi South 3.5 mph - N/A   Overcast
5:55 AM 36.3 °F 33.7 °F 30.6 °F 80% 29.92 in 10.0 mi SSE 3.5 mph - N/A   Overcast
6:15 AM 36.1 °F 31.4 °F 30.2 °F 79% 29.91 in 10.0 mi SSE 5.8 mph - N/A   Overcast
6:35 AM 36.5 °F 32.7 °F 30.2 °F 78% 29.91 in 10.0 mi South 4.6 mph - N/A   Overcast
6:55 AM 36.5 °F 33.9 °F 30.2 °F 78% 29.90 in 10.0 mi South 3.5 mph - N/A   Overcast
7:15 AM 36.5 °F 31.8 °F 30.2 °F 78% 29.90 in 10.0 mi SSW 5.8 mph - N/A   Overcast
7:35 AM 35.8 °F 31.9 °F 30.2 °F 80% 29.89 in 10.0 mi SSW 4.6 mph - N/A   Overcast
7:55 AM 35.8 °F 33.0 °F 29.8 °F 79% 29.89 in 7.0 mi South 3.5 mph - N/A   Overcast
8:15 AM 35.4 °F 32.6 °F 29.8 °F 80% 29.89 in 7.0 mi South 3.5 mph - N/A   Scattered Clouds
8:35 AM 35.6 °F 31.7 °F 29.7 °F 79% 29.89 in 7.0 mi South 4.6 mph - N/A   Clear
8:55 AM 35.6 °F 32.8 °F 29.3 °F 78% 29.89 in 10.0 mi SE 3.5 mph - N/A   Clear
9:15 AM 33.3 °F 27.9 °F 28.9 °F 84% 29.89 in 7.0 mi SE 5.8 mph - N/A   Clear
9:35 AM 34.5 °F 31.6 °F 29.7 °F 82% 29.88 in 7.0 mi SE 3.5 mph - N/A   Clear
9:55 AM 35.8 °F 31.9 °F 29.8 °F 79% 29.86 in 10.0 mi SSE 4.6 mph - N/A   Clear
10:15 AM 36.7 °F 29.9 °F 29.3 °F 75% 29.84 in 10.0 mi SSE 9.2 mph - N/A   Clear
10:35 AM 37.0 °F 33.3 °F 29.3 °F 74% 29.83 in 10.0 mi South 4.6 mph - N/A   Clear
10:55 AM 36.9 °F 33.1 °F 29.7 °F 75% 29.82 in 10.0 mi South 4.6 mph - N/A   Clear
11:15 AM 37.0 °F 33.3 °F 29.7 °F 75% 29.83 in 10.0 mi SSW 4.6 mph - N/A   Clear
11:35 AM 37.2 °F 32.6 °F 29.7 °F 74% 29.83 in 10.0 mi South 5.8 mph - N/A   Clear
11:55 AM 37.9 °F 34.4 °F 29.3 °F 71% 29.83 in 10.0 mi SSW 4.6 mph - N/A   Clear
12:15 PM 38.3 °F 32.5 °F 29.3 °F 70% 29.80 in 10.0 mi South 8.1 mph - N/A   Clear
12:35 PM 38.7 °F 35.2 °F 28.9 °F 68% 29.77 in 10.0 mi South 4.6 mph - N/A   Clear
12:55 PM 39.0 °F 36.8 °F 29.1 °F 68% 29.75 in 10.0 mi South 3.5 mph - N/A   Clear
1:15 PM 39.2 °F 35.9 °F 29.1 °F 67% 29.75 in 10.0 mi South 4.6 mph - N/A   Scattered Clouds
1:35 PM 39.4 °F 35.2 °F 29.1 °F 67% 29.74 in 10.0 mi South 5.8 mph - N/A   Overcast
1:55 PM 39.6 °F 34.7 °F 28.9 °F 66% 29.72 in 10.0 mi South 6.9 mph - N/A   Overcast
2:15 PM 39.2 °F 33.6 °F 28.9 °F 67% 29.71 in 10.0 mi South 8.1 mph - N/A   Overcast
2:35 PM 39.2 °F 34.2 °F 28.9 °F 67% 29.69 in 10.0 mi South 6.9 mph - N/A   Overcast
2:55 PM 39.6 °F 35.4 °F 28.8 °F 65% 29.69 in 10.0 mi South 5.8 mph - N/A   Overcast
3:15 PM 39.6 °F 35.4 °F 28.4 °F 64% 29.69 in 10.0 mi South 5.8 mph - N/A   Overcast
3:35 PM 39.7 °F 35.6 °F 28.4 °F 64% 29.68 in 10.0 mi South 5.8 mph - N/A   Overcast
3:55 PM 39.2 °F 35.9 °F 28.9 °F 67% 29.68 in 10.0 mi South 4.6 mph - N/A   Overcast
4:15 PM 39.4 °F 37.2 °F 28.8 °F 66% 29.67 in 10.0 mi SSW 3.5 mph - N/A   Overcast
4:35 PM 39.4 °F 36.1 °F 28.8 °F 66% 29.67 in 10.0 mi SW 4.6 mph - N/A   Overcast
4:55 PM 39.2 °F 35.0 °F 28.8 °F 66% 29.66 in 10.0 mi SSW 5.8 mph - N/A   Overcast
5:15 PM 39.4 °F 34.5 °F 28.4 °F 65% 29.66 in 10.0 mi South 6.9 mph - N/A   Overcast
5:35 PM 39.0 °F 31.0 °F 28.4 °F 66% 29.63 in 10.0 mi SSE 13.8 mph - N/A   Overcast
5:55 PM 39.2 °F 35.9 °F 28.8 °F 66% 29.63 in 10.0 mi South 4.6 mph - N/A   Light Drizzle
6:15 PM 38.8 °F 32.1 °F 29.1 °F 68% 29.61 in 10.0 mi SSE 10.4 mph - N/A   Overcast
6:35 PM 38.8 °F 34.6 °F 29.3 °F 69% 29.61 in 10.0 mi South 5.8 mph - N/A   Overcast
6:55 PM 38.3 °F 34.8 °F 30.0 °F 72% 29.62 in 10.0 mi South 4.6 mph - N/A Rain Light Rain
7:15 PM 38.1 °F 32.3 °F 31.1 °F 76% 29.61 in 10.0 mi SSE 8.1 mph - N/A   Light Drizzle
7:35 PM 37.4 °F 33.8 °F 32.0 °F 81% 29.62 in 7.0 mi SSW 4.6 mph - N/A Rain Light Rain
7:55 PM 36.9 °F 32.2 °F 32.2 °F 83% 29.60 in 5.0 mi South 5.8 mph - N/A Rain Rain
8:15 PM 36.9 °F 33.1 °F 32.4 °F 84% 29.60 in 5.0 mi South 4.6 mph - N/A Rain Light Rain
8:35 PM 35.8 °F 30.9 °F 32.0 °F 86% 29.59 in 5.0 mi SSE 5.8 mph - N/A   Drizzle
8:55 PM 36.1 °F 33.5 °F 32.4 °F 86% 29.59 in 5.0 mi SSW 3.5 mph - N/A Rain Light Rain
9:15 PM 35.8 °F 31.9 °F 32.2 °F 87% 29.58 in 3.0 mi South 4.6 mph - N/A Rain Rain
9:35 PM 35.8 °F 31.9 °F 32.2 °F 87% 29.57 in 5.0 mi South 4.6 mph - N/A Rain Rain
9:55 PM 35.8 °F 31.9 °F 32.2 °F 87% 29.56 in 5.0 mi SSE 4.6 mph - N/A Rain Rain
10:15 PM 35.6 °F 31.7 °F 32.2 °F 87% 29.56 in 5.0 mi SSW 4.6 mph - N/A   Drizzle
10:35 PM 35.6 °F 30.7 °F 32.0 °F 87% 29.55 in 7.0 mi South 5.8 mph - N/A   Drizzle
10:55 PM 35.6 °F 31.7 °F 32.0 °F 87% 29.56 in 7.0 mi South 4.6 mph - N/A   Overcast
11:15 PM 35.8 °F 33.0 °F 32.4 °F 87% 29.55 in 10.0 mi South 3.5 mph - N/A   Overcast
11:35 PM 35.4 °F 31.5 °F 32.0 °F 87% 29.54 in 10.0 mi South 4.6 mph - N/A   Overcast
11:55 PM 35.8 °F 30.1 °F 32.2 °F 87% 29.54 in 10.0 mi South 6.9 mph - N/A   Mostly Cloudy